,,Stat5,,Stat1,,Stat2,,Stat3,,Stat4,,Wind1,,Wind1,
time,status,PA1M_AVG,status,PR1M_SUM,status,RH1M_AVG,status,SR1M_AVG,status,TA1M_AVG,status,W1dAve1m,status,W1sAve1m,
2003-02-10, 00:00:00,VALID,917.031,VALID,0,VALID,94.2259,VALID,0,VALID,20.5874,VALID,147,VALID,1.51792,
2003-02-10, 00:01:00,VALID,917.013,VALID,0,VALID,94.278,VALID,0,VALID,20.5673,VALID,146,VALID,1.42253,
2003-02-10, 00:02:00,VALID,917.009,VALID,0,VALID,94.4014,VALID,0.0169808,VALID,20.5643,VALID,146,VALID,1.38361,
2003-02-10, 00:03:00,VALID,917.007,VALID,0,VALID,94.4815,VALID,0,VALID,20.5384,VALID,133,VALID,1.2418,
2003-02-10, 00:04:00,VALID,917.012,VALID,0,VALID,94.6786,VALID,0,VALID,20.5285,VALID,138,VALID,1.72228,
2003-02-10, 00:05:00,VALID,917.01,VALID,0,VALID,94.6506,VALID,-0.0169808,VALID,20.5384,VALID,126,VALID,1.33433,
2003-02-10, 00:06:00,VALID,917.016,VALID,0,VALID,94.7689,VALID,0,VALID,20.5414,VALID,123,VALID,1.37826,
2003-02-10, 00:07:00,VALID,917.026,VALID,0,VALID,94.9075,VALID,-0.0509425,VALID,20.5481,VALID,142,VALID,1.34863,
2003-02-10, 00:08:00,VALID,916.992,VALID,0,VALID,94.807,VALID,0,VALID,20.5939,VALID,144,VALID,0.984581,
2003-02-10, 00:09:00,VALID,916.985,VALID,0,VALID,94.7244,VALID,0,VALID,20.6235,VALID,136,VALID,0.953547,
2003-02-10, 00:10:00,VALID,916.986,VALID,0,VALID,94.7244,VALID,0,VALID,20.6222,VALID,148,VALID,1.02175,
2003-02-10, 00:11:00,VALID,916.993,VALID,0,VALID,94.6875,VALID,0,VALID,20.6421,VALID,146,VALID,1.23746,
2003-02-10, 00:12:00,VALID,916.96,VALID,0,VALID,94.6265,VALID,0,VALID,20.6451,VALID,145,VALID,0.805773,
2003-02-10, 00:13:00,VALID,916.96,VALID,0,VALID,94.5858,VALID,-0.0169808,VALID,20.6456,VALID,137,VALID,0.414292,
2003-02-10, 00:14:00,VALID,916.954,VALID,0,VALID,94.5692,VALID,0,VALID,20.6128,VALID,130,VALID,0.458882,
2003-02-10, 00:15:00,VALID,916.966,VALID,0,VALID,94.676,VALID,0,VALID,20.5999,VALID,128,VALID,0.772321,
2003-02-10, 00:16:00,VALID,916.979,VALID,0,VALID,94.7816,VALID,0,VALID,20.5869,VALID,144,VALID,0.447545,
2003-02-10, 00:17:00,VALID,916.984,VALID,0,VALID,95.0067,VALID,0,VALID,20.5934,VALID,120,VALID,0.916466,
2003-02-10, 00:18:00,VALID,916.983,VALID,0,VALID,95.0194,VALID,0,VALID,20.5934,VALID,112,VALID,0.888557,
2003-02-10, 00:19:00,VALID,916.982,VALID,0,VALID,94.9901,VALID,0,VALID,20.5899,VALID,116,VALID,1.34487,
2003-02-10, 00:20:00,VALID,916.98,VALID,0,VALID,95.2546,VALID,0,VALID,20.6128,VALID,129,VALID,1.30117,
2003-02-10, 00:21:00,VALID,916.958,VALID,0,VALID,95.397,VALID,0,VALID,20.6222,VALID,127,VALID,1.39308,
2003-02-10, 00:22:00,VALID,916.966,VALID,0,VALID,95.2851,VALID,-0.0339617,VALID,20.6322,VALID,114,VALID,0.967601,
2003-02-10, 00:23:00,VALID,916.973,VALID,0,VALID,95.2381,VALID,0,VALID,20.6252,VALID,117,VALID,1.27282,
2003-02-10, 00:24:00,VALID,916.985,VALID,0,VALID,95.397,VALID,0,VALID,20.6357,VALID,136,VALID,1.34665,
2003-02-10, 00:25:00,VALID,916.976,VALID,0,VALID,95.4746,VALID,0,VALID,20.6392,VALID,136,VALID,0.980804,
2003-02-10, 00:26:00,VALID,916.993,VALID,0,VALID,95.5522,VALID,0.0169808,VALID,20.6319,VALID,150,VALID,1.04988,
2003-02-10, 00:27:00,VALID,916.976,VALID,0,VALID,95.4187,VALID,0.0169808,VALID,20.6556,VALID,130,VALID,0.716912,
2003-02-10, 00:28:00,VALID,916.982,VALID,0,VALID,95.4733,VALID,0.0169808,VALID,20.6454,VALID,144,VALID,0.958259,
2003-02-10, 00:29:00,VALID,916.991,VALID,0,VALID,95.4784,VALID,0,VALID,20.6451,VALID,140,VALID,1.1707,
2003-02-10, 00:30:00,VALID,916.994,VALID,0,VALID,95.4072,VALID,0,VALID,20.6548,VALID,111,VALID,1.20558,
2003-02-10, 00:31:00,VALID,916.99,VALID,0,VALID,95.3538,VALID,0,VALID,20.6613,VALID,138,VALID,1.35432,
2003-02-10, 00:32:00,VALID,916.997,VALID,0,VALID,95.3513,VALID,-0.0169808,VALID,20.661,VALID,137,VALID,1.28269,
2003-02-10, 00:33:00,VALID,916.977,VALID,0,VALID,95.2737,VALID,0,VALID,20.6774,VALID,141,VALID,1.45826,
2003-02-10, 00:34:00,VALID,916.964,VALID,0,VALID,95.1847,VALID,0.0169808,VALID,20.6904,VALID,141,VALID,1.2971,
2003-02-10, 00:35:00,VALID,916.961,VALID,0,VALID,95.0804,VALID,-0.0509425,VALID,20.6812,VALID,139,VALID,1.32472,
2003-02-10, 00:36:00,VALID,916.92,VALID,0,VALID,95.0143,VALID,-0.0849042,VALID,20.6656,VALID,151,VALID,1.4028,
2003-02-10, 00:37:00,VALID,916.909,VALID,0,VALID,95.0143,VALID,-0.101885,VALID,20.6273,VALID,149,VALID,1.37857,
2003-02-10, 00:38:00,VALID,916.918,VALID,0,VALID,95.1529,VALID,-0.0849042,VALID,20.5914,VALID,140,VALID,1.24434,
2003-02-10, 00:39:00,VALID,916.914,VALID,0,VALID,95.3907,VALID,-0.101885,VALID,20.5658,VALID,141,VALID,1.23795,
2003-02-10, 00:40:00,VALID,916.919,VALID,0,VALID,95.5636,VALID,-0.101885,VALID,20.5507,VALID,121,VALID,1.18382,
2003-02-10, 00:41:00,VALID,916.927,VALID,0,VALID,95.7353,VALID,-0.101885,VALID,20.527,VALID,137,VALID,1.05715,
2003-02-10, 00:42:00,VALID,916.936,VALID,0,VALID,95.9298,VALID,-0.118866,VALID,20.5273,VALID,142,VALID,1.47522,
2003-02-10, 00:43:00,VALID,916.914,VALID,0,VALID,95.9286,VALID,-0.0849042,VALID,20.5303,VALID,146,VALID,1.24353,
2003-02-10, 00:44:00,VALID,916.902,VALID,0,VALID,95.8116,VALID,-0.101885,VALID,20.537,VALID,107,VALID,0.951122,
2003-02-10, 00:45:00,VALID,916.903,VALID,0,VALID,95.7849,VALID,-0.118866,VALID,20.5268,VALID,123,VALID,0.748621,
2003-02-10, 00:46:00,VALID,916.902,VALID,0,VALID,95.8078,VALID,-0.101885,VALID,20.5405,VALID,146,VALID,0.760714,
2003-02-10, 00:47:00,VALID,916.907,VALID,0,VALID,95.804,VALID,-0.101885,VALID,20.5365,VALID,124,VALID,0.743164,
2003-02-10, 00:48:00,VALID,916.915,VALID,0,VALID,95.6921,VALID,-0.0849042,VALID,20.5527,VALID,76,VALID,0.261384,
2003-02-10, 00:49:00,VALID,916.934,VALID,0,VALID,95.6628,VALID,-0.101885,VALID,20.5556,VALID,93,VALID,0.516314,
2003-02-10, 00:50:00,VALID,916.944,VALID,0,VALID,95.6183,VALID,-0.0169808,VALID,20.574,VALID,107,VALID,1.01912,
2003-02-10, 00:51:00,VALID,916.957,VALID,0,VALID,95.3996,VALID,0,VALID,20.5996,VALID,63,VALID,0.814955,
2003-02-10, 00:52:00,VALID,916.968,VALID,0,VALID,95.1732,VALID,0.0169808,VALID,20.609,VALID,37,VALID,0.852455,
2003-02-10, 00:53:00,VALID,916.976,VALID,0,VALID,95.0588,VALID,0.0169808,VALID,20.6058,VALID,61,VALID,1.02905,
2003-02-10, 00:54:00,VALID,916.979,VALID,0,VALID,95.0448,VALID,0.0169808,VALID,20.5958,VALID,66,VALID,1.25023,
2003-02-10, 00:55:00,VALID,916.977,VALID,0,VALID,94.999,VALID,0.0339617,VALID,20.5926,VALID,77,VALID,1.24799,
2003-02-10, 00:56:00,VALID,916.966,VALID,0,VALID,95.0143,VALID,0.0169808,VALID,20.5964,VALID,84,VALID,1.52422,
2003-02-10, 00:57:00,VALID,916.962,VALID,0,VALID,95.0868,VALID,0.0169808,VALID,20.6128,VALID,85,VALID,1.53125,
2003-02-10, 00:58:00,VALID,916.941,VALID,0,VALID,94.9291,VALID,0,VALID,20.6516,VALID,101,VALID,1.47243,
2003-02-10, 00:59:00,VALID,916.933,VALID,0,VALID,94.7956,VALID,0,VALID,20.6933,VALID,124,VALID,0.985197,
2003-02-10, 01:00:00,VALID,916.933,VALID,0,VALID,94.6582,VALID,0,VALID,20.7321,VALID,100,VALID,0.913393,
2003-02-10, 01:01:00,VALID,916.95,VALID,0,VALID,94.4128,VALID,0,VALID,20.7672,VALID,110,VALID,1.12924,
2003-02-10, 01:02:00,VALID,916.961,VALID,0,VALID,94.2501,VALID,0,VALID,20.8065,VALID,106,VALID,0.75621,
2003-02-10, 01:03:00,VALID,916.974,VALID,0,VALID,94.039,VALID,0.0339617,VALID,20.8547,VALID,95,VALID,0.940717,
2003-02-10, 01:04:00,VALID,916.98,VALID,0,VALID,93.7872,VALID,0.0339617,VALID,20.8903,VALID,67,VALID,0.814062,
2003-02-10, 01:05:00,VALID,916.991,VALID,0,VALID,93.6575,VALID,0.0339617,VALID,20.9256,VALID,88,VALID,0.385547,
2003-02-10, 01:06:00,VALID,916.955,VALID,0,VALID,93.5965,VALID,0.0509425,VALID,20.9482,VALID,89,VALID,0.446875,
2003-02-10, 01:07:00,VALID,916.934,VALID,0,VALID,93.5036,VALID,0.0339617,VALID,20.9741,VALID,152,VALID,0.288603,
2003-02-10, 01:08:00,VALID,916.914,VALID,0,VALID,93.4044,VALID,0.0509425,VALID,21.0064,VALID,103,VALID,0.304276,
2003-02-10, 01:09:00,VALID,916.907,VALID,0,VALID,93.3688,VALID,0.0339617,VALID,21.0355,VALID,160,VALID,0.61317,
2003-02-10, 01:10:00,VALID,916.887,VALID,0,VALID,93.29,VALID,0.0339617,VALID,21.0582,VALID,135,VALID,0.382366,
2003-02-10, 01:11:00,VALID,916.875,VALID,0,VALID,93.215,VALID,0.0169808,VALID,21.0714,VALID,128,VALID,0.0955529,
2003-02-10, 01:12:00,VALID,916.855,VALID,0,VALID,93.2315,VALID,0.0169808,VALID,21.0768,VALID,23,VALID,0.653952,
2003-02-10, 01:13:00,VALID,916.833,VALID,0,VALID,93.1361,VALID,0.0509425,VALID,21.0873,VALID,33,VALID,0.834375,
2003-02-10, 01:14:00,VALID,916.833,VALID,0,VALID,93.0344,VALID,0,VALID,21.0681,VALID,48,VALID,0.884961,
2003-02-10, 01:15:00,VALID,916.816,VALID,0,VALID,93.0954,VALID,0.0679233,VALID,21.0323,VALID,56,VALID,0.948661,
2003-02-10, 01:16:00,VALID,916.802,VALID,0,VALID,93.2061,VALID,0.0679233,VALID,21.0194,VALID,52,VALID,1.19853,
2003-02-10, 01:17:00,VALID,916.803,VALID,0,VALID,93.3549,VALID,0.0169808,VALID,20.987,VALID,37,VALID,1.17475,
2003-02-10, 01:18:00,VALID,916.812,VALID,0,VALID,93.5443,VALID,0.0509425,VALID,20.942,VALID,15,VALID,1.36563,
2003-02-10, 01:19:00,VALID,916.808,VALID,0,VALID,93.5799,VALID,0.0679233,VALID,20.9124,VALID,40,VALID,1.27366,
2003-02-10, 01:20:00,VALID,916.839,VALID,0,VALID,93.6359,VALID,-0.0509425,VALID,20.8779,VALID,56,VALID,1.09295,
2003-02-10, 01:21:00,VALID,916.831,VALID,0,VALID,93.7783,VALID,-0.0849042,VALID,20.8334,VALID,33,VALID,1.04159,
2003-02-10, 01:22:00,VALID,916.85,VALID,0,VALID,94.1229,VALID,-0.101885,VALID,20.7951,VALID,32,VALID,1.1308,
2003-02-10, 01:23:00,VALID,916.84,VALID,0,VALID,94.348,VALID,-0.0849042,VALID,20.7688,VALID,54,VALID,0.720117,
2003-02-10, 01:24:00,VALID,916.831,VALID,0,VALID,94.4484,VALID,-0.0849042,VALID,20.7588,VALID,45,VALID,0.856696,
2003-02-10, 01:25:00,VALID,916.815,VALID,0,VALID,94.5985,VALID,-0.0509425,VALID,20.7526,VALID,50,VALID,0.596967,
2003-02-10, 01:26:00,VALID,916.79,VALID,0,VALID,94.6519,VALID,-0.101885,VALID,20.7262,VALID,71,VALID,0.43236,
2003-02-10, 01:27:00,VALID,916.757,VALID,0,VALID,94.793,VALID,-0.101885,VALID,20.7267,VALID,78,VALID,0.240402,
2003-02-10, 01:28:00,VALID,916.746,VALID,0,VALID,94.9291,VALID,-0.0849042,VALID,20.7168,VALID,77,VALID,0.520536,
2003-02-10, 01:29:00,VALID,916.728,VALID,0,VALID,94.8998,VALID,-0.0679233,VALID,20.7294,VALID,75,VALID,0.49359,
2003-02-10, 01:30:00,VALID,916.715,VALID,0,VALID,94.8935,VALID,-0.0849042,VALID,20.7453,VALID,82,VALID,0.859375,
2003-02-10, 01:31:00,VALID,916.705,VALID,0,VALID,94.7943,VALID,-0.0679233,VALID,20.7814,VALID,73,VALID,0.79933,
2003-02-10, 01:32:00,VALID,916.684,VALID,0,VALID,94.5451,VALID,-0.0849042,VALID,20.8138,VALID,93,VALID,0.781836,
2003-02-10, 01:33:00,VALID,916.674,VALID,0,VALID,94.5921,VALID,-0.0849042,VALID,20.81,VALID,89,VALID,0.546429,
2003-02-10, 01:34:00,VALID,916.659,VALID,0,VALID,94.6608,VALID,-0.0339617,VALID,20.8431,VALID,77,VALID,0.803539,
2003-02-10, 01:35:00,VALID,916.642,VALID,0,VALID,94.6252,VALID,0.0169808,VALID,20.8577,VALID,125,VALID,0.547697,
2003-02-10, 01:36:00,VALID,916.625,VALID,0,VALID,94.6239,VALID,0.0339617,VALID,20.8734,VALID,126,VALID,0.882813,
2003-02-10, 01:37:00,VALID,916.589,VALID,0,VALID,94.5781,VALID,0.0169808,VALID,20.893,VALID,133,VALID,0.771652,
2003-02-10, 01:38:00,VALID,916.574,VALID,0,VALID,94.5006,VALID,0.0169808,VALID,20.9191,VALID,149,VALID,1.28065,
2003-02-10, 01:39:00,VALID,916.533,VALID,0,VALID,94.3391,VALID,0,VALID,20.9415,VALID,149,VALID,1.16016,
2003-02-10, 01:40:00,VALID,916.502,VALID,0,VALID,94.2386,VALID,0.0339617,VALID,20.9711,VALID,156,VALID,1.36808,
2003-02-10, 01:41:00,VALID,916.48,VALID,0,VALID,94.2437,VALID,0.0339617,VALID,20.9669,VALID,134,VALID,0.958398,
2003-02-10, 01:42:00,VALID,916.448,VALID,0,VALID,94.1903,VALID,0.0339617,VALID,20.9671,VALID,152,VALID,1.21563,
2003-02-10, 01:43:00,VALID,916.456,VALID,0,VALID,94.2717,VALID,0.0169808,VALID,20.9612,VALID,155,VALID,0.958869,
2003-02-10, 01:44:00,VALID,916.426,VALID,0,VALID,94.334,VALID,0.0169808,VALID,20.9286,VALID,144,VALID,1.07484,
2003-02-10, 01:45:00,VALID,916.418,VALID,0,VALID,94.5018,VALID,0.0339617,VALID,20.8928,VALID,149,VALID,1.20536,
2003-02-10, 01:46:00,VALID,916.411,VALID,0,VALID,94.7053,VALID,0.0509425,VALID,20.8577,VALID,145,VALID,1.15201,
2003-02-10, 01:47:00,VALID,916.412,VALID,0,VALID,94.9393,VALID,0.0169808,VALID,20.8222,VALID,146,VALID,1.17288,
2003-02-10, 01:48:00,VALID,916.394,VALID,0,VALID,95.0919,VALID,0.0679233,VALID,20.8025,VALID,151,VALID,1.28653,
2003-02-10, 01:49:00,VALID,916.39,VALID,0,VALID,95.1618,VALID,0.0339617,VALID,20.7863,VALID,138,VALID,0.705946,
2003-02-10, 01:50:00,VALID,916.399,VALID,0,VALID,95.2012,VALID,0,VALID,20.7839,VALID,145,VALID,0.986719,
2003-02-10, 01:51:00,VALID,916.383,VALID,0,VALID,95.2292,VALID,-0.0339617,VALID,20.7612,VALID,143,VALID,0.970982,
2003-02-10, 01:52:00,VALID,916.391,VALID,0,VALID,95.2635,VALID,0,VALID,20.7481,VALID,135,VALID,0.748392,
2003-02-10, 01:53:00,VALID,916.392,VALID,0,VALID,95.3068,VALID,-0.0509425,VALID,20.7518,VALID,102,VALID,0.765419,
2003-02-10, 01:54:00,VALID,916.398,VALID,0,VALID,95.3207,VALID,-0.0339617,VALID,20.7483,VALID,100,VALID,0.744866,
2003-02-10, 01:55:00,VALID,916.42,VALID,0,VALID,95.3856,VALID,0,VALID,20.7386,VALID,127,VALID,0.712277,
2003-02-10, 01:56:00,VALID,916.414,VALID,0,VALID,95.4187,VALID,-0.0679233,VALID,20.7453,VALID,144,VALID,0.69371,
2003-02-10, 01:57:00,VALID,916.419,VALID,0,VALID,95.3894,VALID,-0.0169808,VALID,20.755,VALID,141,VALID,0.295267,
2003-02-10, 01:58:00,VALID,916.412,VALID,0,VALID,95.3131,VALID,0,VALID,20.7548,VALID,108,VALID,0.528571,
2003-02-10, 01:59:00,VALID,916.441,VALID,0,VALID,95.2851,VALID,-0.0169808,VALID,20.758,VALID,106,VALID,0.610937,
2003-02-10, 02:00:00,VALID,916.44,VALID,0,VALID,95.2991,VALID,0,VALID,20.7682,VALID,107,VALID,0.871875,
2003-02-10, 02:01:00,VALID,916.424,VALID,0,VALID,95.336,VALID,-0.0169808,VALID,20.7513,VALID,118,VALID,0.68796,
2003-02-10, 02:02:00,VALID,916.439,VALID,0,VALID,95.3322,VALID,-0.0509425,VALID,20.762,VALID,123,VALID,0.820107,
2003-02-10, 02:03:00,VALID,916.41,VALID,0,VALID,95.3106,VALID,-0.0339617,VALID,20.7585,VALID,131,VALID,1.34018,
2003-02-10, 02:04:00,VALID,916.396,VALID,0,VALID,95.3169,VALID,-0.0679233,VALID,20.7523,VALID,121,VALID,0.806473,
2003-02-10, 02:05:00,VALID,916.393,VALID,0,VALID,95.3589,VALID,0.0509425,VALID,20.7448,VALID,126,VALID,0.619391,
2003-02-10, 02:06:00,VALID,916.37,VALID,0,VALID,95.4047,VALID,0.0509425,VALID,20.7338,VALID,128,VALID,0.467601,
2003-02-10, 02:07:00,VALID,916.352,VALID,0,VALID,95.4339,VALID,0.101885,VALID,20.7273,VALID,128,VALID,0.812946,
2003-02-10, 02:08:00,VALID,916.319,VALID,0,VALID,95.4454,VALID,0.101885,VALID,20.7249,VALID,133,VALID,0.945117,
2003-02-10, 02:09:00,VALID,916.331,VALID,0,VALID,95.4708,VALID,0.0849042,VALID,20.7147,VALID,134,VALID,0.947768,
2003-02-10, 02:10:00,VALID,916.313,VALID,0,VALID,95.5166,VALID,0,VALID,20.7281,VALID,147,VALID,1.11144,
2003-02-10, 02:11:00,VALID,916.305,VALID,0,VALID,95.5318,VALID,0.0169808,VALID,20.7249,VALID,146,VALID,1.69675,
2003-02-10, 02:12:00,VALID,916.28,VALID,0,VALID,95.5178,VALID,0.0679233,VALID,20.7147,VALID,143,VALID,1.48504,
2003-02-10, 02:13:00,VALID,916.257,VALID,0,VALID,95.5178,VALID,0.0679233,VALID,20.7176,VALID,140,VALID,1.32344,
2003-02-10, 02:14:00,VALID,916.27,VALID,0,VALID,95.5573,VALID,0.101885,VALID,20.7311,VALID,111,VALID,0.827925,
2003-02-10, 02:15:00,VALID,916.26,VALID,0,VALID,95.6361,VALID,0.0849042,VALID,20.7179,VALID,132,VALID,1.11673,
2003-02-10, 02:16:00,VALID,916.239,VALID,0,VALID,95.7289,VALID,0.0849042,VALID,20.695,VALID,134,VALID,0.924554,
2003-02-10, 02:17:00,VALID,916.215,VALID,0,VALID,95.8065,VALID,0.0679233,VALID,20.6786,VALID,133,VALID,1.12422,
2003-02-10, 02:18:00,VALID,916.185,VALID,0,VALID,95.8141,VALID,0.0679233,VALID,20.6627,VALID,134,VALID,1.29174,
2003-02-10, 02:19:00,VALID,916.173,VALID,0,VALID,95.7505,VALID,0.0679233,VALID,20.6724,VALID,117,VALID,1.17279,
2003-02-10, 02:20:00,VALID,916.135,VALID,0,VALID,95.6476,VALID,0.0509425,VALID,20.6821,VALID,108,VALID,1.45724,
2003-02-10, 02:21:00,VALID,916.175,VALID,0,VALID,95.3551,VALID,0.0679233,VALID,20.7147,VALID,111,VALID,1.44933,
2003-02-10, 02:22:00,VALID,916.168,VALID,0,VALID,95.0537,VALID,0.0849042,VALID,20.7632,VALID,116,VALID,1.48304,
2003-02-10, 02:23:00,VALID,916.183,VALID,0,VALID,94.8375,VALID,0.0679233,VALID,20.8087,VALID,118,VALID,1.39784,
2003-02-10, 02:24:00,VALID,916.165,VALID,0,VALID,94.5756,VALID,0.0679233,VALID,20.8405,VALID,114,VALID,1.38603,
2003-02-10, 02:25:00,VALID,916.173,VALID,0,VALID,94.3264,VALID,0.0849042,VALID,20.8763,VALID,118,VALID,1.54085,
2003-02-10, 02:26:00,VALID,916.164,VALID,0,VALID,94.1839,VALID,0.0509425,VALID,20.9116,VALID,117,VALID,1.01465,
2003-02-10, 02:27:00,VALID,916.179,VALID,0,VALID,94.0987,VALID,0.101885,VALID,20.9316,VALID,121,VALID,1.27321,
2003-02-10, 02:28:00,VALID,916.192,VALID,0,VALID,94.0568,VALID,0.101885,VALID,20.9504,VALID,126,VALID,1.32284,
2003-02-10, 02:29:00,VALID,916.229,VALID,0,VALID,94.0123,VALID,0.0679233,VALID,20.9502,VALID,126,VALID,1.5662,
2003-02-10, 02:30:00,VALID,916.255,VALID,0,VALID,94.0174,VALID,0.101885,VALID,20.9599,VALID,108,VALID,1.11049,
2003-02-10, 02:31:00,VALID,916.272,VALID,0,VALID,94.0555,VALID,0.101885,VALID,20.9534,VALID,145,VALID,1.26473,
2003-02-10, 02:32:00,VALID,916.287,VALID,0,VALID,94.0339,VALID,0.0679233,VALID,20.9604,VALID,126,VALID,1.47636,
2003-02-10, 02:33:00,VALID,916.295,VALID,0,VALID,94.0161,VALID,0.0849042,VALID,20.9666,VALID,128,VALID,1.2909,
2003-02-10, 02:34:00,VALID,916.318,VALID,0,VALID,94.0339,VALID,0.101885,VALID,20.9666,VALID,125,VALID,1.32567,
2003-02-10, 02:35:00,VALID,916.319,VALID,0,VALID,94.0085,VALID,0,VALID,20.9612,VALID,131,VALID,1.4832,
2003-02-10, 02:36:00,VALID,916.33,VALID,0,VALID,93.9271,VALID,-0.0679233,VALID,20.9714,VALID,142,VALID,1.06562,
2003-02-10, 02:37:00,VALID,916.322,VALID,0,VALID,93.8699,VALID,-0.0339617,VALID,20.9746,VALID,139,VALID,1.24655,
2003-02-10, 02:38:00,VALID,916.325,VALID,0,VALID,93.8228,VALID,-0.0169808,VALID,20.9911,VALID,127,VALID,1.18174,
2003-02-10, 02:39:00,VALID,916.297,VALID,0,VALID,93.7503,VALID,-0.0169808,VALID,20.9876,VALID,108,VALID,1.32031,
2003-02-10, 02:40:00,VALID,916.292,VALID,0,VALID,93.6702,VALID,-0.0169808,VALID,20.994,VALID,137,VALID,1.13683,
2003-02-10, 02:41:00,VALID,916.285,VALID,0,VALID,93.6689,VALID,0,VALID,21,VALID,137,VALID,1.14463,
2003-02-10, 02:42:00,VALID,916.284,VALID,0,VALID,93.7325,VALID,-0.0169808,VALID,20.994,VALID,142,VALID,1.14384,
2003-02-10, 02:43:00,VALID,916.279,VALID,0,VALID,93.8381,VALID,-0.0169808,VALID,21.0045,VALID,130,VALID,0.890402,
2003-02-10, 02:44:00,VALID,916.29,VALID,0,VALID,93.922,VALID,-0.0169808,VALID,20.9784,VALID,130,VALID,1.25195,
2003-02-10, 02:45:00,VALID,916.285,VALID,0,VALID,93.9665,VALID,-0.0339617,VALID,20.955,VALID,149,VALID,1.23638,
2003-02-10, 02:46:00,VALID,916.274,VALID,0,VALID,93.9932,VALID,-0.0339617,VALID,20.9523,VALID,151,VALID,1.19301,
2003-02-10, 02:47:00,VALID,916.255,VALID,0,VALID,93.9398,VALID,-0.0339617,VALID,20.9391,VALID,140,VALID,1.10074,
2003-02-10, 02:48:00,VALID,916.245,VALID,0,VALID,93.8342,VALID,0,VALID,20.9388,VALID,146,VALID,1.05915,
2003-02-10, 02:49:00,VALID,916.22,VALID,0,VALID,93.7707,VALID,-0.0169808,VALID,20.9517,VALID,103,VALID,0.845759,
2003-02-10, 02:50:00,VALID,916.237,VALID,0,VALID,93.6651,VALID,-0.0169808,VALID,20.9582,VALID,147,VALID,1.21034,
2003-02-10, 02:51:00,VALID,916.208,VALID,0,VALID,93.5202,VALID,-0.0169808,VALID,20.9781,VALID,122,VALID,0.866958,
2003-02-10, 02:52:00,VALID,916.205,VALID,0,VALID,93.4578,VALID,-0.0169808,VALID,20.9873,VALID,152,VALID,1.41696,
2003-02-10, 02:53:00,VALID,916.199,VALID,0,VALID,93.5036,VALID,-0.0169808,VALID,21.0037,VALID,154,VALID,1.39336,
2003-02-10, 02:54:00,VALID,916.207,VALID,0,VALID,93.6282,VALID,-0.0339617,VALID,21.0099,VALID,152,VALID,1.60759,
2003-02-10, 02:55:00,VALID,916.181,VALID,0,VALID,93.73,VALID,-0.0339617,VALID,21.0002,VALID,154,VALID,1.05032,
2003-02-10, 02:56:00,VALID,916.195,VALID,0,VALID,93.8368,VALID,0,VALID,20.9808,VALID,144,VALID,1.12274,
2003-02-10, 02:57:00,VALID,916.187,VALID,0,VALID,93.964,VALID,-0.0339617,VALID,20.9614,VALID,107,VALID,0.652009,
2003-02-10, 02:58:00,VALID,916.187,VALID,0,VALID,94.0161,VALID,0,VALID,20.945,VALID,129,VALID,1.18103,
2003-02-10, 02:59:00,VALID,916.188,VALID,0,VALID,94.0466,VALID,0,VALID,20.9296,VALID,167,VALID,1.13862,
2003-02-10, 03:00:00,VALID,916.199,VALID,0,VALID,94.0517,VALID,-0.0679233,VALID,20.9226,VALID,160,VALID,1.21301,
2003-02-10, 03:01:00,VALID,916.209,VALID,0,VALID,94.1026,VALID,-0.0169808,VALID,20.9261,VALID,196,VALID,0.584152,
2003-02-10, 03:02:00,VALID,916.235,VALID,0,VALID,94.1585,VALID,-0.0169808,VALID,20.9164,VALID,149,VALID,0.764063,
2003-02-10, 03:03:00,VALID,916.253,VALID,0,VALID,94.1687,VALID,-0.0509425,VALID,20.9102,VALID,142,VALID,0.547098,
2003-02-10, 03:04:00,VALID,916.263,VALID,0,VALID,94.1928,VALID,0,VALID,20.907,VALID,122,VALID,0.1875,
2003-02-10, 03:05:00,VALID,916.279,VALID,0,VALID,94.2195,VALID,-0.0169808,VALID,20.8938,VALID,104,VALID,0.131168,
2003-02-10, 03:06:00,VALID,916.267,VALID,0,VALID,94.2602,VALID,-0.0509425,VALID,20.8873,VALID,55,VALID,0,
2003-02-10, 03:07:00,VALID,916.255,VALID,0,VALID,94.3213,VALID,-0.0169808,VALID,20.8809,VALID,31,VALID,0.512946,
2003-02-10, 03:08:01,VALID,916.246,VALID,0,VALID,94.3531,VALID,-0.0169808,VALID,20.8744,VALID,28,VALID,0.948918,
2003-02-10, 03:09:00,VALID,916.192,VALID,0,VALID,94.3963,VALID,-0.0339617,VALID,20.8386,VALID,47,VALID,0.662224,
2003-02-10, 03:10:00,VALID,916.146,VALID,0,VALID,94.4128,VALID,-0.0339617,VALID,20.8165,VALID,86,VALID,0.790402,
2003-02-10, 03:11:00,VALID,916.126,VALID,0,VALID,94.5641,VALID,-0.0679233,VALID,20.7938,VALID,112,VALID,1.17012,
2003-02-10, 03:12:00,VALID,916.076,VALID,0,VALID,94.8007,VALID,-0.0509425,VALID,20.7712,VALID,125,VALID,0.839286,
2003-02-10, 03:13:00,VALID,916.068,VALID,0,VALID,94.924,VALID,-0.0339617,VALID,20.7354,VALID,148,VALID,1.22909,
2003-02-10, 03:14:00,VALID,916.029,VALID,0,VALID,94.9355,VALID,-0.0169808,VALID,20.7192,VALID,143,VALID,1.27734,
2003-02-10, 03:15:00,VALID,915.985,VALID,0,VALID,94.9304,VALID,-0.0339617,VALID,20.7294,VALID,145,VALID,1.28259,
2003-02-10, 03:16:01,VALID,915.985,VALID,0,VALID,94.9456,VALID,-0.0339617,VALID,20.7289,VALID,149,VALID,1.61384,
2003-02-10, 03:17:00,VALID,915.969,VALID,0,VALID,95.0486,VALID,-0.0169808,VALID,20.7394,VALID,168,VALID,1.46414,
2003-02-10, 03:18:00,VALID,915.952,VALID,0,VALID,95.1224,VALID,-0.0509425,VALID,20.7227,VALID,149,VALID,1.24724,
2003-02-10, 03:19:00,VALID,915.937,VALID,0,VALID,95.294,VALID,-0.0849042,VALID,20.7127,VALID,145,VALID,2.26629,
2003-02-10, 03:20:00,VALID,915.915,VALID,0,VALID,95.4263,VALID,-0.0509425,VALID,20.6936,VALID,149,VALID,1.58164,
2003-02-10, 03:21:00,VALID,915.892,VALID,0,VALID,95.5725,VALID,-0.0339617,VALID,20.6774,VALID,151,VALID,2.29487,
2003-02-10, 03:22:00,VALID,915.868,VALID,0,VALID,95.6857,VALID,-0.0849042,VALID,20.6516,VALID,156,VALID,1.82973,
2003-02-10, 03:23:00,VALID,915.864,VALID,0,VALID,95.7976,VALID,-0.0679233,VALID,20.6354,VALID,147,VALID,1.84725,
2003-02-10, 03:24:00,VALID,915.857,VALID,0,VALID,95.9235,VALID,-0.0849042,VALID,20.6101,VALID,142,VALID,1.61987,
2003-02-10, 03:25:00,VALID,915.854,VALID,0,VALID,95.9362,VALID,-0.0679233,VALID,20.5999,VALID,139,VALID,1.62768,
2003-02-10, 03:26:01,VALID,915.842,VALID,0,VALID,95.7989,VALID,-0.0509425,VALID,20.5971,VALID,129,VALID,1.55128,
2003-02-10, 03:27:00,VALID,915.846,VALID,0,VALID,95.6476,VALID,-0.0339617,VALID,20.6068,VALID,144,VALID,1.82835,
2003-02-10, 03:28:01,VALID,915.826,VALID,0,VALID,95.4123,VALID,-0.0339617,VALID,20.6327,VALID,145,VALID,1.77835,
2003-02-10, 03:29:01,VALID,915.826,VALID,0,VALID,95.1262,VALID,-0.0679233,VALID,20.6645,VALID,146,VALID,1.68066,
2003-02-10, 03:30:00,VALID,915.814,VALID,0,VALID,94.8388,VALID,-0.0849042,VALID,20.6936,VALID,128,VALID,1.56987,
2003-02-10, 03:31:00,VALID,915.834,VALID,0,VALID,94.568,VALID,-0.0849042,VALID,20.7297,VALID,116,VALID,1.87086,
2003-02-10, 03:32:00,VALID,915.838,VALID,0,VALID,94.4166,VALID,-0.0509425,VALID,20.7553,VALID,139,VALID,1.35012,
2003-02-10, 03:33:00,VALID,915.821,VALID,0,VALID,94.3378,VALID,-0.0679233,VALID,20.7847,VALID,130,VALID,1.0221,
2003-02-10, 03:34:01,VALID,915.838,VALID,0,VALID,94.306,VALID,-0.0339617,VALID,20.7876,VALID,118,VALID,1.11094,